Wind_Speed
36 37 38 39 39 40 40 40 40 40 40 40 41 41 42 43 43 44 44 44 43 43 43 44 44 44 44 44 44 45 45 45 45 45 46 47 47 47 47 48 48 47 48
35 36 37 38 39 40 40 41 41 42 42 42 43 43 43 44 44 44 44 44 44 44 44 45 45 46 46 45 46 46 46 46 47 47 47 48 48 48 49 49 50 49 49
35 36 37 38 39 40 41 42 43 43 44 44 44 44 44 44 44 44 45 45 45 45 46 46 46 46 46 46 46 46 47 47 47 48 48 49 48 49 50 51 52 52 52
35 36 37 38 39 40 41 42 42 42 43 43 43 44 44 45 45 46 46 46 46 46 47 47 47 47 47 47 47 47 48 48 49 49 49 49 49 50 51 51 51 52 52
36 36 37 37 38 39 40 41 42 43 43 43 44 44 44 45 46 47 47 47 46 47 47 47 48 48 48 48 49 49 49 49 50 50 50 50 50 51 51 50 50 51 51
35 37 37 37 38 39 40 41 42 43 44 44 45 46 46 46 46 46 47 46 47 47 47 47 48 48 48 49 49 49 50 50 50 50 50 50 51 51 51 51 50 50 49
35 36 37 38 39 40 40 41 42 43 44 45 45 46 46 46 46 46 46 46 47 47 48 48 48 48 48 49 49 50 50 49 49 49 50 50 50 51 51 51 51 50 49
36 38 39 39 40 41 41 42 43 43 43 44 44 45 45 45 45 45 46 46 47 47 48 48 48 48 49 49 49 49 49 49 49 49 50 50 50 50 50 50 50 50 50
38 38 39 40 41 42 43 43 43 43 43 43 44 44 44 44 45 45 46 46 47 47 47 48 48 48 48 49 49 49 49 49 49 49 49 49 49 49 50 50 49 50 50
39 40 41 42 43 43 43 43 43 44 43 44 44 44 45 45 45 45 46 46 47 47 47 48 48 48 48 49 49 48 48 48 48 48 48 48 48 48 48 49 49 49 49
41 42 43 44 44 44 44 44 43 43 43 44 44 44 45 45 45 45 46 46 46 46 46 47 47 47 48 48 48 47 47 47 47 47 47 47 47 47 48 48 48 47 47
44 44 44 45 45 44 44 44 44 43 43 43 43 44 44 44 44 44 45 45 45 46 46 46 47 47 47 47 46 45 45 45 45 45 45 45 45 46 46 46 46 46 47
45 45 45 44 44 44 44 44 44 44 43 43 43 43 43 43 43 43 44 44 44 44 45 45 45 45 45 45 44 44 44 43 43 43 43 43 44 44 44 44 45 45 45
45 45 45 44 44 43 43 43 43 43 43 43 43 43 43 43 43 43 43 43 43 43 43 43 43 42 42 42 42 42 41 41 41 41 41 42 43 43 44 44 43 43 43
44 44 44 44 44 43 43 43 43 43 43 43 43 43 43 43 43 42 42 42 42 41 41 41 41 40 40 40 40 39 39 39 40 40 40 41 41 42 42 42 42 42 42
43 43 44 43 43 43 43 43 43 43 43 43 43 42 42 42 42 42 41 41 40 40 39 39 39 38 38 38 37 38 38 38 38 39 39 40 40 41 41 41 42 41 40
43 43 44 43 43 43 43 43 43 43 42 42 41 41 41 41 41 40 40 39 39 39 38 38 38 38 37 37 36 36 36 37 38 39 39 40 40 40 41 41 40 39 38
43 43 44 44 43 43 43 43 43 42 41 40 40 40 40 39 38 37 38 38 38 37 37 37 37 37 36 36 36 36 36 37 38 38 39 39 39 39 39 39 38 36 35
43 43 43 42 42 43 42 42 41 40 40 39 39 39 38 37 37 36 37 37 37 36 36 36 36 36 35 35 35 36 37 37 38 38 38 38 38 38 37 36 35 34 34
42 41 41 41 40 40 40 39 38 38 38 37 37 36 36 35 35 35 35 36 36 35 35 35 35 35 35 35 35 36 36 37 37 37 37 37 36 36 35 35 34 33 32
40 40 39 39 38 38 38 37 36 36 36 35 35 34 34 33 34 34 34 34 34 34 34 34 34 34 35 35 35 35 36 36 36 35 35 35 35 34 34 33 33 32 31
39 38 38 37 36 36 36 36 36 35 34 34 33 32 32 32 33 33 33 33 33 33 32 33 33 33 33 33 33 34 34 34 33 34 33 33 33 33 32 32 31 30 30
39 38 38 37 36 36 35 35 34 33 32 32 32 32 32 32 32 32 32 32 31 31 32 32 32 32 32 32 32 32 32 32 32 32 31 31 31 31 30 29 29 29 29
38 37 37 36 35 35 34 33 32 31 31 30 31 31 31 31 31 31 31 30 30 31 31 31 31 31 30 30 30 30 30 31 31 30 29 30 29 29 28 27 28 28 28
37 36 36 35 35 34 33 32 31 30 30 30 30 30 30 30 30 30 29 29 29 29 30 30 29 29 29 29 29 28 28 29 28 28 28 28 27 27 26 26 26 27 26
37 36 35 35 34 33 33 31 30 29 29 29 29 29 29 29 29 29 29 28 28 28 28 28 28 28 27 27 27 27 27 27 27 26 26 26 25 24 24 25 25 25 23
Wind_Direction
265 265 266 266 267 268 270 270 270 271 272 273 274 275 275 276 276 278 279 280 281 281 282 283 284 286 286 286 285 285 285 285 285 285 285 285 285 285 285 285 284 285 285
268 268 269 269 269 269 270 270 271 272 272 273 274 275 275 276 277 278 279 280 281 282 283 284 284 285 285 285 285 285 285 285 286 286 286 286 286 286 285 285 285 285 286
271 271 271 271 271 271 271 272 272 273 273 274 275 275 276 276 277 278 279 280 280 281 282 284 285 285 285 286 286 285 285 286 286 286 286 286 286 287 286 285 285 285 286
273 274 274 274 273 273 273 274 274 274 274 274 275 276 276 277 277 278 279 279 280 281 282 283 284 285 286 286 287 286 286 286 286 287 287 287 286 288 288 287 286 286 285
276 276 276 276 276 276 276 276 276 275 275 275 275 276 277 277 278 278 278 279 279 281 282 283 284 285 286 286 287 287 287 286 287 287 287 288 288 288 289 289 288 286 285
278 277 277 277 277 278 278 278 278 277 277 276 276 277 277 278 278 279 279 279 280 281 283 284 285 286 286 286 286 287 287 287 287 287 288 289 289 288 289 288 288 286 285
280 279 278 278 279 279 280 279 279 279 278 278 277 277 278 278 278 278 278 279 280 281 282 284 285 286 286 286 287 287 287 287 287 288 288 289 289 288 288 287 287 286 285
281 281 280 280 280 280 281 281 280 280 279 279 279 278 279 279 278 278 279 279 280 281 283 284 285 285 286 287 287 287 287 288 288 289 289 289 289 289 289 288 287 286 285
283 283 282 281 281 282 282 281 281 280 280 279 279 279 279 279 279 279 279 280 280 282 283 284 285 285 286 287 287 287 287 288 289 289 289 289 289 289 290 289 287 286 286
283 283 283 283 282 283 282 281 281 280 280 280 279 279 279 279 280 280 280 281 281 282 283 283 284 285 286 287 289 289 288 289 290 290 290 291 291 291 291 290 289 288 287
283 283 283 284 283 283 282 282 281 281 280 280 280 280 280 280 280 281 282 282 282 283 283 284 284 286 287 288 289 289 289 290 290 290 291 291 292 292 292 292 291 290 290
284 283 284 284 283 282 282 281 281 281 281 281 281 280 280 280 281 282 282 282 283 284 284 284 285 286 287 288 289 289 290 290 291 292 292 293 293 293 294 293 293 292 292
285 284 284 284 284 283 282 281 281 281 281 281 281 281 281 281 282 282 282 283 284 284 285 285 286 287 288 289 289 289 290 291 292 293 293 294 294 295 295 295 294 294 294
285 284 284 283 283 283 282 282 281 281 281 281 281 281 282 282 283 283 283 283 284 285 286 286 287 287 289 289 290 290 290 291 293 293 294 295 296 297 297 297 297 296 296
285 284 283 283 283 282 282 282 281 281 281 281 281 282 282 282 282 282 283 284 285 286 286 287 287 288 289 289 290 290 291 292 293 295 296 297 298 299 299 299 298 298 297
284 284 284 283 282 281 281 281 281 281 281 281 282 282 281 281 281 282 283 284 285 285 286 286 288 289 290 290 291 292 293 294 295 296 298 299 299 300 300 300 300 299 298
284 284 283 283 282 281 281 281 281 281 280 281 281 282 282 281 281 281 282 283 284 285 286 287 288 290 290 290 291 293 294 296 297 297 298 299 300 300 300 301 300 299 298
284 284 283 283 282 282 281 281 281 280 279 280 280 281 282 282 282 282 281 282 283 284 285 287 289 290 290 291 292 293 295 296 298 298 299 300 300 301 301 302 301 300 299
285 284 284 284 283 282 282 281 281 279 279 279 280 280 280 280 281 281 281 282 283 284 285 287 288 290 290 292 293 294 295 297 298 299 300 300 300 301 302 302 301 300 300
285 285 285 284 284 283 282 281 281 280 280 280 280 280 280 280 280 281 281 282 283 284 285 287 288 290 291 292 294 295 296 297 298 299 300 300 301 301 302 302 301 301 300
285 285 285 285 285 284 283 282 281 281 280 280 279 279 279 279 281 282 283 284 285 285 286 287 289 291 291 292 294 295 296 297 298 299 300 300 301 301 301 301 301 301 301
284 284 285 285 285 285 284 282 281 281 279 278 278 278 278 279 281 282 283 284 285 286 287 289 291 291 292 293 295 296 297 298 299 300 300 301 302 302 301 302 302 302 304
284 284 285 285 285 285 285 283 282 281 279 277 276 275 276 278 280 282 283 284 285 286 288 290 291 292 293 294 295 297 298 299 300 301 301 301 302 302 302 302 302 303 305
284 285 285 285 284 284 285 284 282 280 279 277 276 276 277 278 280 282 282 284 285 287 289 291 292 293 293 294 295 296 298 299 300 301 301 302 303 302 302 302 303 304 305
284 284 284 284 283 284 285 284 281 279 278 278 277 277 278 279 280 280 282 284 286 288 290 292 293 294 294 294 295 297 298 300 301 301 302 303 303 303 302 303 305 307 307
283 283 283 282 282 283 283 281 280 278 278 278 277 277 278 278 278 278 280 282 285 288 291 293 294 295 294 295 296 297 299 300 301 302 303 304 303 303 304 305 307 308 308
Height
5712 5711 5711 5711 5710 5709 5709 5708 5707 5706 5705 5704 5703 5702 5700 5699 5697 5696 5694 5692 5691 5688 5686 5684 5681 5679 5676 5673 5670 5667 5664 5662 5659 5656 5653 5650 5647 5643 5640 5637 5633 5630 5627
5703 5702 5702 5701 5700 5699 5698 5698 5697 5696 5694 5693 5692 5691 5689 5688 5686 5684 5683 5680 5679 5676 5674 5672 5669 5666 5664 5661 5658 5655 5652 5649 5646 5644 5640 5637 5633 5630 5627 5623 5620 5616 5613
5694 5693 5692 5691 5690 5689 5688 5687 5686 5684 5683 5682 5680 5679 5677 5676 5674 5672 5670 5668 5666 5664 5662 5659 5657 5654 5651 5648 5645 5642 5639 5636 5633 5630 5627 5623 5620 5616 5613 5609 5606 5602 5599
5685 5684 5683 5681 5680 5679 5677 5676 5675 5673 5672 5670 5669 5667 5665 5664 5662 5660 5658 5656 5654 5651 5649 5647 5644 5641 5638 5635 5632 5629 5626 5623 5619 5616 5613 5609 5606 5602 5599 5595 5591 5587 5584
5676 5674 5673 5671 5670 5668 5667 5665 5663 5662 5660 5658 5657 5655 5653 5651 5649 5647 5645 5643 5641 5639 5636 5634 5631 5628 5625 5622 5619 5616 5612 5609 5606 5602 5599 5595 5592 5588 5584 5580 5576 5572 5568
5667 5664 5663 5661 5659 5657 5656 5654 5652 5650 5648 5646 5644 5643 5641 5638 5636 5634 5632 5630 5628 5626 5623 5620 5618 5615 5612 5608 5605 5602 5599 5595 5592 5588 5585 5581 5577 5573 5570 5565 5561 5558 5554
5657 5655 5653 5651 5649 5647 5645 5643 5640 5638 5636 5634 5632 5630 5628 5625 5623 5621 5619 5617 5615 5613 5610 5607 5604 5601 5598 5595 5591 5588 5584 5581 5578 5574 5571 5567 5563 5559 5555 5551 5546 5542 5539
5647 5645 5642 5640 5638 5636 5633 5631 5628 5626 5624 5621 5619 5617 5615 5613 5610 5608 5606 5604 5602 5599 5597 5594 5591 5588 5584 5581 5578 5574 5570 5567 5564 5560 5557 5552 5548 5544 5540 5536 5532 5528 5524
5637 5634 5632 5629 5627 5624 5622 5619 5616 5614 5611 5609 5607 5605 5602 5600 5597 5595 5593 5591 5589 5586 5583 5581 5578 5575 5571 5568 5565 5561 5557 5553 5549 5546 5542 5538 5533 5529 5525 5521 5517 5513 5510
5625 5623 5620 5617 5615 5612 5609 5606 5604 5601 5599 5597 5595 5592 5590 5587 5585 5582 5580 5578 5576 5573 5570 5567 5564 5561 5558 5554 5551 5547 5544 5540 5536 5532 5528 5524 5520 5515 5511 5507 5503 5498 5494
5613 5611 5608 5605 5602 5599 5596 5594 5591 5589 5587 5585 5582 5580 5577 5574 5572 5569 5567 5564 5562 5559 5557 5554 5551 5548 5545 5541 5538 5534 5531 5527 5523 5519 5515 5510 5506 5502 5497 5493 5488 5484 5480
5600 5598 5595 5592 5589 5586 5584 5581 5579 5576 5574 5572 5569 5567 5564 5562 5559 5556 5554 5551 5549 5546 5543 5540 5537 5534 5531 5528 5525 5521 5518 5514 5510 5506 5502 5498 5494 5489 5484 5480 5475 5470 5466
5587 5584 5582 5579 5576 5573 5571 5568 5566 5564 5561 5559 5557 5554 5552 5549 5546 5544 5541 5538 5536 5533 5531 5528 5525 5522 5519 5515 5512 5509 5505 5501 5498 5494 5490 5485 5481 5476 5472 5467 5462 5457 5453
5573 5571 5568 5565 5563 5560 5558 5555 5553 5551 5548 5546 5544 5542 5539 5537 5534 5531 5529 5526 5524 5521 5518 5515 5513 5510 5507 5503 5500 5497 5493 5490 5486 5482 5478 5473 5469 5464 5460 5455 5450 5445 5441
5560 5557 5554 5552 5549 5547 5545 5542 5540 5538 5535 5533 5531 5529 5527 5525 5522 5519 5517 5514 5512 5509 5506 5504 5501 5498 5495 5492 5488 5485 5482 5478 5474 5470 5466 5462 5457 5453 5448 5443 5438 5433 5429
5546 5543 5541 5538 5536 5534 5532 5529 5527 5525 5523 5520 5518 5516 5514 5512 5509 5507 5505 5502 5500 5497 5495 5493 5490 5487 5484 5481 5478 5474 5471 5467 5463 5459 5455 5451 5446 5441 5437 5432 5427 5422 5417
5532 5530 5527 5525 5523 5520 5518 5516 5514 5512 5509 5507 5505 5503 5501 5499 5497 5495 5493 5491 5488 5486 5484 5482 5479 5476 5473 5470 5467 5464 5460 5456 5453 5448 5444 5440 5435 5430 5426 5421 5416 5411 5407
5518 5516 5514 5511 5509 5507 5505 5503 5501 5499 5497 5495 5493 5491 5489 5487 5485 5483 5481 5479 5478 5475 5474 5471 5469 5466 5463 5460 5457 5453 5450 5446 5442 5438 5434 5429 5424 5420 5415 5410 5405 5401 5397
5505 5503 5500 5498 5496 5493 5491 5489 5487 5486 5484 5483 5481 5479 5477 5475 5474 5472 5470 5469 5467 5465 5463 5461 5458 5455 5452 5449 5446 5443 5439 5436 5432 5427 5423 5419 5414 5410 5405 5400 5396 5392 5387
5492 5490 5487 5485 5483 5480 5478 5476 5475 5473 5472 5470 5469 5467 5466 5464 5463 5461 5459 5458 5456 5454 5452 5450 5447 5444 5442 5439 5436 5432 5429 5425 5421 5417 5413 5409 5404 5400 5396 5391 5387 5383 5379
5479 5477 5475 5472 5470 5468 5466 5464 5463 5461 5460 5459 5458 5456 5455 5454 5452 5451 5449 5447 5445 5443 5441 5439 5437 5434 5431 5428 5425 5422 5419 5415 5411 5407 5403 5399 5395 5391 5386 5382 5378 5374 5370
5467 5465 5463 5461 5459 5457 5455 5453 5451 5450 5449 5448 5447 5445 5444 5443 5442 5441 5439 5437 5435 5433 5431 5429 5426 5424 5421 5418 5415 5412 5409 5405 5401 5397 5394 5390 5386 5382 5378 5374 5370 5366 5362
5455 5453 5451 5449 5447 5445 5444 5442 5440 5439 5438 5437 5436 5435 5434 5433 5432 5431 5429 5427 5425 5424 5421 5419 5417 5414 5411 5408 5405 5402 5399 5396 5392 5388 5385 5381 5377 5373 5370 5366 5362 5358 5354
5443 5441 5439 5438 5436 5434 5433 5431 5429 5428 5427 5426 5425 5425 5424 5423 5422 5421 5419 5418 5416 5414 5412 5409 5407 5404 5402 5399 5396 5393 5390 5387 5383 5380 5376 5373 5369 5365 5362 5358 5355 5351 5347
5431 5429 5428 5426 5425 5423 5422 5421 5419 5418 5417 5416 5415 5415 5414 5413 5412 5411 5410 5408 5407 5405 5403 5400 5398 5395 5393 5390 5387 5384 5381 5378 5375 5371 5368 5365 5361 5358 5355 5351 5348 5344 5340
5419 5418 5416 5415 5414 5412 5411 5410 5409 5408 5407 5406 5406 5405 5404 5403 5402 5401 5401 5399 5398 5396 5394 5392 5389 5387 5384 5382 5379 5376 5373 5370 5367 5364 5361 5357 5354 5351 5348 5345 5341 5338 5334